Location: Unspecified
(0.0000°N, 0.0000°E)
Time: 13:27:55
(UTC+00:00)

Vanguard 3 - All Passes

Search period start: 20 July 2019 00:00
Search period end: 30 July 2019 00:00
Orbit: 507 x 3264 km, 33.4° (Epoch: 19 July)

Date Brightness Start Highest point End Pass type
(mag) Time Alt. Az. Time Alt. Az. Time Alt. Az.
20 Jul - 01:19:23 10° W 01:26:14 31° NNW 01:37:15 10° NE visible
20 Jul - 03:36:48 10° NW 03:44:18 17° N 03:53:46 10° NNE visible
20 Jul - 05:55:45 10° NNW 06:06:34 18° N 06:18:14 10° NE daylight
20 Jul - 08:11:19 10° NNW 08:28:20 34° NNE 08:42:33 10° E daylight
20 Jul - 10:27:22 10° NW 10:46:32 73° NE 10:58:34 10° ESE daylight
20 Jul - 12:47:00 10° WNW 13:01:00 41° SW 13:09:28 10° SSE daylight
20 Jul - 21:55:03 10° SSW 21:58:55 28° SE 22:04:32 10° E night (unlit)
21 Jul - 00:05:08 10° WSW 00:10:54 47° NNW 00:20:54 10° NE visible
21 Jul - 02:20:08 10° NW 02:26:49 19° NNW 02:36:01 10° NNE visible
21 Jul - 04:39:19 10° NNW 04:47:13 15° N 04:56:24 10° NNE visible
21 Jul - 06:55:16 10° NNW 07:09:41 25° NNE 07:23:46 10° ENE daylight
21 Jul - 09:10:19 10° NW 09:29:31 53° NNE 09:43:32 10° ESE daylight
21 Jul - 11:27:52 10° WNW 11:45:49 69° SW 11:56:33 10° SE daylight
21 Jul - 13:51:31 10° WSW 13:59:20 18° SW 14:05:03 10° S daylight
21 Jul - 22:51:44 10° SW 22:56:31 88° NW 23:04:45 10° NE night (unlit)
22 Jul - 01:04:33 10° WNW 01:10:29 24° NNW 01:19:26 10° NNE visible
22 Jul - 03:22:40 10° NNW 03:28:37 14° N 03:35:50 10° NNE visible
22 Jul - 05:39:39 10° NNW 05:50:34 19° NNE 06:02:35 10° NE visible
22 Jul - 07:54:01 10° NW 08:11:40 38° NNE 08:26:56 10° E daylight
22 Jul - 10:09:51 10° NW 10:29:42 83° NE 10:42:40 10° ESE daylight
22 Jul - 12:30:09 10° W 12:44:25 37° SW 12:53:27 10° SSE daylight
22 Jul - 21:39:09 10° SSW 21:42:59 35° SE 21:48:29 10° ENE night (unlit)
22 Jul - 23:49:59 10° W 23:55:09 35° NNW 00:03:32 10° NE visible
23 Jul - 02:06:01 10° NW 02:11:10 15° N 02:17:44 10° NNE visible
23 Jul - 04:24:20 10° NNW 04:31:29 14° N 04:39:45 10° NE visible
23 Jul - 06:38:24 10° NNW 06:53:15 28° NNE 07:08:15 10° ENE daylight
23 Jul - 08:52:54 10° NW 09:12:37 60° NNE 09:27:39 10° ESE daylight
23 Jul - 11:10:37 10° WNW 11:28:59 61° SW 11:40:31 10° SE daylight
23 Jul - 13:35:30 10° WSW 13:43:07 17° SW 13:48:53 10° S daylight
23 Jul - 20:28:36 10° SSE 20:29:33 11° SE 20:30:33 10° SE night (unlit)
23 Jul - 22:36:18 10° WSW 22:40:43 64° NNW 22:47:59 10° NE night (unlit)
24 Jul - 00:50:03 10° WNW 00:54:51 18° NNW 01:01:28 10° NNE visible
24 Jul - 03:09:01 10° NNW 03:13:01 12° N 03:17:36 10° NNE visible
24 Jul - 05:23:25 10° NNW 05:34:29 19° NNE 05:46:57 10° ENE visible
24 Jul - 07:36:50 10° NW 07:54:51 43° NNE 08:11:08 10° E daylight
24 Jul - 09:52:30 10° NW 10:12:41 89° SW 10:26:37 10° SE daylight
24 Jul - 12:13:24 10° W 12:27:49 33° SW 12:37:20 10° SSE daylight
24 Jul - 21:23:21 10° SW 21:27:06 47° SE 21:32:23 10° ENE night (unlit)
24 Jul - 23:35:03 10° WNW 23:39:30 25° NNW 23:46:08 10° NNE visible
25 Jul - 01:52:54 10° NNW 01:55:37 11° N 01:58:42 10° N visible
25 Jul - 04:09:09 10° NNW 04:15:43 14° NNE 04:23:21 10° NE visible
25 Jul - 06:21:35 10° NNW 06:36:39 30° NNE 06:52:31 10° E daylight
25 Jul - 08:35:36 10° NW 08:55:33 67° NE 09:11:36 10° ESE daylight
25 Jul - 10:53:30 10° WNW 11:12:03 55° SW 11:24:22 10° SE daylight
25 Jul - 13:19:37 10° WSW 13:26:56 16° SW 13:32:40 10° S daylight
25 Jul - 20:11:34 10° S 20:13:43 14° SE 20:16:02 10° ESE night (unlit)
25 Jul - 22:20:57 10° WSW 22:25:01 44° NNW 22:31:12 10° NE night (unlit)
26 Jul - 00:36:14 10° NW 00:39:19 13° NNW 00:43:04 10° N visible
26 Jul - 05:07:06 10° NNW 05:18:16 21° NNE 05:31:16 10° ENE visible
26 Jul - 07:19:44 10° NW 07:37:51 48° NNE 07:55:06 10° ESE daylight
26 Jul - 09:35:17 10° WNW 09:55:33 80° SW 10:10:25 10° SE daylight
26 Jul - 11:56:47 10° W 12:11:11 30° SW 12:21:09 10° SSE daylight
26 Jul - 21:07:37 10° SW 21:11:19 69° SE 21:16:17 10° ENE night (unlit)
26 Jul - 23:20:28 10° WNW 23:23:56 17° NNW 23:28:34 10° NNE night (unlit)
27 Jul - 03:53:42 10° N 03:59:56 13° NNE 04:07:10 10° NE visible
27 Jul - 06:04:48 10° NNW 06:19:56 34° NNE 06:36:35 10° E daylight
27 Jul - 08:18:27 10° NW 08:38:21 75° NE 08:55:21 10° ESE daylight
27 Jul - 10:36:32 10° WNW 10:55:04 50° SW 11:08:07 10° SE daylight
27 Jul - 13:03:48 10° WSW 13:10:48 15° SSW 13:16:26 10° S daylight
27 Jul - 19:55:06 10° SSW 19:57:56 20° SE 20:00:54 10° E visible
27 Jul - 22:05:48 10° W 22:09:24 29° NNW 22:14:22 10° NNE night (unlit)
28 Jul - 04:50:44 10° NNW 05:01:58 22° NNE 05:15:27 10° ENE visible
28 Jul - 07:02:47 10° NW 07:20:44 54° NE 07:38:52 10° ESE daylight
28 Jul - 09:18:13 10° WNW 09:38:20 73° SW 09:54:04 10° SE daylight
28 Jul - 11:40:19 10° W 11:54:34 28° SW 12:04:54 10° SSE daylight
28 Jul - 20:51:57 10° WSW 20:55:37 78° NW 21:00:09 10° NE night (unlit)
28 Jul - 23:06:46 10° NW 23:08:26 11° NNW 23:10:18 10° N night (unlit)
29 Jul - 03:38:01 10° N 03:44:04 13° NNE 03:51:11 10° NE visible
29 Jul - 05:48:05 10° NNW 06:03:04 37° NNE 06:20:27 10° E daylight
29 Jul - 08:01:28 10° NW 08:21:02 82° NE 08:38:56 10° ESE daylight
29 Jul - 10:19:44 10° WNW 10:38:03 45° SW 10:51:45 10° SSE daylight
29 Jul - 12:48:03 10° SW 12:54:44 14° SSW 13:00:16 10° S daylight
29 Jul - 19:38:49 10° SSW 19:42:12 30° SE 19:45:34 10° E visible
29 Jul - 21:50:52 10° WNW 21:53:48 19° NNW 21:57:26 10° NNE night (unlit)
